Hourly Data Report for July 10, 2021

RANKIN INLET A
NUNAVUT
Current Station Operator: NAVCAN

62°48'38.000" N
92°06'53.000" W
32.30 m
2303405
71083
YRT

Download Data

Hourly Data (July 2021)
Hourly Data Report for July 10, 2021
TIME
LST
Temp Definition
°C
Dew Point Definition
°C
Rel Hum Definition
%
Precip. Amount Definition
mm

Wind Dir Definition
10's deg

Wind Spd Definition
km/h
Visibility Definition
km
Stn Press Definition
kPa
Hmdx Definition


Wind Chill Definition


Weather Definition


00:00 6.3 5.0 91   15 17 24.1 101.12     Mostly Cloudy
01:00 6.1 5.1 93   14 12 24.1 101.15     LegendNANA
02:00 5.6 4.8 94   15 13 24.1 101.18     LegendNANA
03:00 6.5 5.4 93   19 11 24.1 101.19     Mainly Clear
04:00 6.6 5.3 92   18 13 24.1 101.21     LegendNANA
05:00 7.9 5.1 82   20 9 24.1 101.23     LegendNANA
06:00 8.8 4.9 76   21 10 24.1 101.25     Clear
07:00 10.1 5.4 72   18 10 48.3 101.24     LegendNANA
08:00 11.6 5.5 66   17 7 48.3 101.25     LegendNANA
09:00 12.5 5.1 60   17 12 48.3 101.23     Mainly Clear
10:00 13.7 4.6 54   18 16 48.3 101.22     LegendNANA
11:00 15.1 4.0 47   19 18 24.1 101.24     LegendNANA
12:00 14.8 3.9 48   19 22 48.3 101.23     Mostly Cloudy
13:00 14.9 3.8 47   19 24 48.3 101.22     LegendNANA
14:00 14.6 3.6 47   19 26 48.3 101.21     LegendNANA
15:00 14.6 4.9 52   19 25 48.3 101.18     Mainly Clear
16:00 14.5 5.1 53   19 24 48.3 101.16     LegendNANA
17:00 13.1 4.8 57   20 25 48.3 101.16     LegendNANA
18:00 13.1 4.8 57   20 17 48.3 101.17     Mostly Cloudy
19:00 10.7 4.8 67   19 22 24.1 101.09     LegendNANA
20:00 9.6 5.2 74   17 20 24.1 101.05     LegendNANA
21:00 8.6 4.9 77   20 13 24.1 101.03     Mostly Cloudy
22:00 8.1 5.1 82   20 17 24.1 101.02     LegendNANA
23:00 7.6 5.8 88   19 16 24.1 101.01     LegendNANA

Notes on Data Quality.

Legend

  • E = Estimated
  • M = Missing
  • NA = Not Available*
  • [empty] = Indicates an unobserved value
Date modified: